Overview Statistics Trail Chart Weather Telemetry Raw packets
 

This is the latest recevied weather packets stored in our database for station/object VE6HFD-WX. If no packets are shown the sender has not sent any weather packets the latest 10 day(s).

<< 6 7 8 9 10 11 12 >>
Time Temp. Humidity Pressure Rain* Wind** Luminosity Snow
1788570999 18.33° C 62% 1011.7 hPa 0 mm - - -
1788570700 18.33° C 61% 1011.5 hPa 0 mm - - -
1788570399 18.89° C 59% 1011.5 hPa 0 mm - - -
1788570069 18.89° C 59% 1011.4 hPa 0 mm - - -
1788569769 18.89° C 60% 1011.3 hPa 0 mm - - -
1788569439 18.33° C 60% 1011.2 hPa 0 mm - - -
1788569110 18.89° C 59% 1011 hPa 0 mm - - -
1788568779 18.33° C 60% 1011 hPa 0 mm - - -
1788568449 18.33° C 60% 1011.1 hPa 0 mm - - -
1788568119 18.33° C 60% 1011 hPa 0 mm - - -
1788567819 18.33° C 60% 1011 hPa 0 mm - - -
1788567489 18.33° C 60% 1011 hPa 0 mm - - -
1788567159 18.33° C 61% 1011 hPa 0 mm - - -
1788566859 18.33° C 61% 1010.9 hPa 0 mm - - -
1788566530 18.33° C 61% 1010.9 hPa 0 mm - - -
1788566229 18.33° C 60% 1010.9 hPa 0 mm - - -
1788565930 18.89° C 59% 1010.9 hPa 0 mm - - -
1788565600 18.89° C 58% 1010.8 hPa 0 mm - - -
1788565299 19.44° C 57% 1010.8 hPa 0 mm - - -
1788565000 19.44° C 57% 1010.7 hPa 0 mm - - -
1788564339 20° C 56% 1010.6 hPa 0 mm - - -
1788564009 20° C 57% 1010.5 hPa 0 mm - - -
1788563709 20° C 55% 1010.3 hPa 0 mm - - -
1788563379 20° C 56% 1010.3 hPa 0 mm - - -
1788563079 19.44° C 56% 1010.7 hPa 0 mm - - -

* Rain latest hour (hover to see other rain measurements)
** Current wind speed in m/s (hover to see current wind gust speed)